Weather reports worldwide

Advertisment
La Coruna/Alvedro, Spain (8002): temperature & dewpoint: 18.03.2019 17:00:00 - 24.03.2019 17:00:00 (CET)La Coruna/Alvedro, Spain (8002): wind speed: 18.03.2019 17:00:00 - 24.03.2019 17:00:00 (CET)La Coruna/Alvedro, Spain (8002): wind direction: 18.03.2019 17:00:00 - 24.03.2019 17:00:00 (CET)La Coruna/Alvedro, Spain (8002): reduced air pressure: 18.03.2019 17:00:00 - 24.03.2019 17:00:00 (CET)La Coruna/Alvedro, Spain (8002): visibility: 18.03.2019 17:00:00 - 24.03.2019 17:00:00 (CET)
Date & Time tt [°C] td [°C] ff [km/h] ff [kn] dd ppp [hPa] vv [km]
24.03.2019 17:00:00 20,1 8,2 13 7 N 1022,9 10
24.03.2019 16:00:00 20,3 8,9 13 7 N 1023,1 10
24.03.2019 15:00:00 21,0 9,0 16 9 N 1023,4 30
24.03.2019 14:00:00 19,5 9,0 11 6 N 1024,4 10
24.03.2019 13:00:00 18,0 8,7 9 5 NNE 1025,2 10
24.03.2019 12:00:00 16,2 8,0 9 5 NNW 1025,8 10
24.03.2019 11:00:00 14,4 6,8 4 2 N 1025,9 28
24.03.2019 10:00:00 11,3 6,1 4 2 - 1025,9 10
24.03.2019 09:00:00 7,3 5,3 8 4 S 1025,5 20
24.03.2019 08:00:00 4,6 3,7 9 5 S 1025,3 10
24.03.2019 07:00:00 4,5 3,6 9 5 S 1024,8 10
24.03.2019 06:00:00 4,9 3,9 8 4 S 1024,9 16
24.03.2019 05:00:00 5,2 4,2 8 4 S 1024,8 25
24.03.2019 04:00:00 6,0 5,0 11 6 S 1024,5 10
24.03.2019 03:00:00 6,6 5,2 9 5 S 1024,7 22
24.03.2019 02:00:00 7,7 5,5 9 5 S 1024,7 10
24.03.2019 01:00:00 8,5 6,1 9 5 S 1024,8 22
24.03.2019 00:00:00 9,6 6,3 8 4 S 1025,2 10
23.03.2019 23:00:00 11,7 6,2 0 0 N 1025,2 10
23.03.2019 22:00:00 12,9 5,6 0 0 N 1025,1 10
23.03.2019 21:00:00 14,3 6,1 4 2 N 1024,5 30
23.03.2019 20:00:00 15,4 6,7 8 4 NW 1023,9 10
23.03.2019 19:00:00 18,0 6,4 8 4 NNW 1023,5 10
23.03.2019 18:00:00 19,1 5,6 11 6 N 1023,0 30
23.03.2019 17:00:00 18,9 5,6 11 6 N 1023,0 10
23.03.2019 16:00:00 18,3 6,2 13 7 N 1023,3 10
23.03.2019 15:00:00 17,3 8,3 15 8 N 1023,6 26
23.03.2019 14:00:00 17,2 8,8 15 8 NNE 1024,2 30
23.03.2019 13:00:00 18,3 8,2 5 3 NNE 1024,6 10
23.03.2019 12:00:00 17,8 7,7 2 1 - 1025,1 10
23.03.2019 11:00:00 14,3 6,8 4 2 - 1025,7 10
23.03.2019 10:00:00 9,9 4,7 8 4 S 1026,1 10
23.03.2019 09:00:00 5,6 3,8 8 4 S 1026,4 10
23.03.2019 08:00:00 3,4 2,7 11 6 S 1026,3 10
23.03.2019 07:00:00 3,6 2,4 9 5 - 1026,3 10
23.03.2019 06:00:00 3,9 2,9 9 5 SSW 1026,4 22
23.03.2019 05:00:00 4,0 3,1 8 4 S 1026,5 10
23.03.2019 04:00:00 4,6 3,9 11 6 S 1026,6 10
23.03.2019 03:00:00 5,0 4,4 5 3 S 1027,1 10
23.03.2019 02:00:00 5,9 5,3 13 7 S 1027,2 7
23.03.2019 01:00:00 6,6 6,0 9 5 SSE 1027,3 8
23.03.2019 00:00:00 7,5 6,9 8 4 SSE 1027,6 7
22.03.2019 23:00:00 8,3 7,3 9 5 S 1027,7 10
22.03.2019 22:00:00 9,7 8,6 2 1 - 1027,7 10
22.03.2019 21:00:00 10,5 8,9 2 1 SSW 1027,3 11
22.03.2019 20:00:00 11,6 9,8 8 4 NE 1027,0 14
22.03.2019 19:00:00 13,2 10,0 9 5 NNE 1026,4 10
22.03.2019 18:00:00 14,2 10,0 11 6 NNE 1026,1 20
22.03.2019 17:00:00 15,1 8,7 16 9 N 1026,0 10
22.03.2019 16:00:00 15,6 8,1 15 8 N 1026,1 10
22.03.2019 15:00:00 16,5 9,3 16 9 N 1026,1 30
22.03.2019 14:00:00 17,8 6,3 13 7 N 1026,2 10
22.03.2019 13:00:00 16,9 7,3 11 6 NNE 1026,5 10
22.03.2019 12:00:00 17,7 2,5 5 3 - 1026,8 10
22.03.2019 11:00:00 16,0 5,6 8 4 S 1027,0 10
22.03.2019 10:00:00 11,7 6,6 9 5 S 1026,9 10
22.03.2019 09:00:00 7,7 4,8 11 6 S 1026,8 10
22.03.2019 08:00:00 4,9 3,4 8 4 S 1026,5 10
22.03.2019 07:00:00 5,8 3,4 5 3 SSW 1025,9 10
22.03.2019 06:00:00 6,3 4,2 4 2 S 1025,4 30
22.03.2019 05:00:00 6,0 3,9 8 4 S 1025,1 10
22.03.2019 04:00:00 6,4 4,4 0 0 N 1025,3 10
22.03.2019 03:00:00 6,3 4,3 11 6 S 1025,4 10
22.03.2019 02:00:00 6,7 4,7 11 6 S 1025,6 10
22.03.2019 01:00:00 6,9 4,4 8 4 S 1025,9 30
22.03.2019 00:00:00 8,2 5,7 9 5 SSE 1025,8 10
21.03.2019 23:00:00 9,5 5,4 0 0 N 1025,9 18
21.03.2019 22:00:00 10,7 5,7 0 0 N 1025,7 10
21.03.2019 21:00:00 12,0 6,1 4 2 N 1025,2 30
21.03.2019 20:00:00 13,3 6,2 4 2 - 1024,6 10
21.03.2019 19:00:00 15,6 6,3 9 5 N 1024,5 10
21.03.2019 18:00:00 17,0 6,3 15 8 NNE 1024,5 30
21.03.2019 17:00:00 17,9 6,7 11 6 N 1024,5 10
21.03.2019 16:00:00 17,3 4,5 11 6 N 1025,1 10
21.03.2019 15:00:00 17,2 2,5 8 4 N 1026,1 10
21.03.2019 14:00:00 16,5 3,3 8 4 NE 1027,2 10
21.03.2019 13:00:00 15,1 2,8 2 1 - 1028,0 10
21.03.2019 12:00:00 13,2 3,5 8 4 N 1028,8 10
21.03.2019 11:00:00 12,4 1,2 4 2 - 1029,0 10
21.03.2019 10:00:00 10,5 1,1 0 0 N 1029,2 10
21.03.2019 09:00:00 7,6 2,5 5 3 SE 1029,2 10
21.03.2019 08:00:00 3,0 1,1 8 4 WSW 1029,1 10
21.03.2019 07:00:00 3,3 1,8 4 2 - 1029,1 10
21.03.2019 06:00:00 2,8 1,6 2 1 SW 1029,0 30
21.03.2019 05:00:00 3,6 2,7 5 3 WSW 1028,9 30
21.03.2019 04:00:00 3,7 2,4 8 4 S 1029,1 30
21.03.2019 03:00:00 5,3 2,8 5 3 SSW 1029,3 30
21.03.2019 02:00:00 7,8 2,9 0 0 N 1029,1 10
21.03.2019 01:00:00 7,5 3,9 2 1 - 1029,2 10
21.03.2019 00:00:00 8,5 4,3 2 1 WNW 1029,4 30
20.03.2019 23:00:00 9,3 4,3 2 1 - 1029,6 10
20.03.2019 22:00:00 10,0 4,1 8 4 E 1029,6 10
20.03.2019 21:00:00 10,8 4,5 16 9 E 1029,4 30
20.03.2019 20:00:00 11,7 5,0 15 8 ENE 1029,2 30
20.03.2019 19:00:00 13,8 5,4 16 9 ENE 1028,7 10
20.03.2019 18:00:00 15,4 6,4 15 8 NE 1028,2 10
20.03.2019 17:00:00 16,1 6,1 22 12 NE 1028,1 30
20.03.2019 16:00:00 16,7 7,4 16 9 NE 1028,4 10
20.03.2019 15:00:00 16,9 7,6 16 9 NE 1029,1 30
20.03.2019 14:00:00 16,6 6,6 16 9 E 1029,7 10
20.03.2019 13:00:00 15,8 7,3 15 8 ENE 1030,3 10
20.03.2019 12:00:00 15,1 6,8 13 7 E 1030,9 10
20.03.2019 11:00:00 13,7 6,5 13 7 ENE 1031,6 10
20.03.2019 10:00:00 11,4 5,9 4 2 NNE 1031,8 30
20.03.2019 09:00:00 8,4 6,5 0 0 N 1031,9 10
20.03.2019 08:00:00 5,7 4,8 4 2 SSW 1031,3 10
20.03.2019 07:00:00 6,5 4,7 8 4 S 1031,2 25
20.03.2019 06:00:00 9,1 6,4 2 1 - 1030,5 10
20.03.2019 05:00:00 9,8 6,9 9 5 NNE 1030,6 30
20.03.2019 04:00:00 9,7 6,8 8 4 NE 1031,0 10
20.03.2019 03:00:00 9,8 7,0 9 5 NNE 1031,5 30
20.03.2019 02:00:00 9,4 6,7 11 6 NE 1031,7 10
20.03.2019 01:00:00 9,3 6,6 5 3 N 1032,2 10
20.03.2019 00:00:00 9,2 6,6 4 2 N 1032,4 30
19.03.2019 23:00:00 9,5 6,4 5 3 NNE 1032,2 10
19.03.2019 22:00:00 10,2 6,5 9 5 NNE 1031,9 10
19.03.2019 21:00:00 10,6 6,3 13 7 NE 1031,8 10
19.03.2019 20:00:00 11,2 6,5 13 7 NNE 1031,3 30
19.03.2019 19:00:00 12,4 6,9 13 7 NE 1030,7 10
19.03.2019 18:00:00 12,2 7,1 11 6 NNE 1030,4 10
19.03.2019 17:00:00 12,4 7,1 15 8 NNE 1030,4 10
19.03.2019 16:00:00 12,7 7,1 15 8 NNE 1030,4 10
19.03.2019 15:00:00 12,7 8,0 16 9 N 1030,6 10
19.03.2019 14:00:00 12,5 7,4 8 4 NNE 1031,4 30
19.03.2019 13:00:00 12,2 6,2 15 8 NE 1031,8 10
19.03.2019 12:00:00 11,7 6,2 15 8 NE 1031,7 10
19.03.2019 11:00:00 11,0 7,1 4 2 - 1032,0 10
19.03.2019 10:00:00 8,6 6,6 0 0 N 1032,0 10
19.03.2019 09:00:00 6,0 5,3 5 3 SSW 1031,8 10
19.03.2019 08:00:00 4,5 3,9 4 2 S 1031,3 14
19.03.2019 07:00:00 4,4 4,0 8 4 SSW 1030,8 8
19.03.2019 06:00:00 3,2 2,6 5 3 SSW 1030,7 8
19.03.2019 05:00:00 4,5 3,6 0 0 N 1030,8 20
19.03.2019 04:00:00 5,0 4,0 2 1 - 1030,8 10
19.03.2019 03:00:00 5,6 4,4 5 3 SSW 1031,2 15
19.03.2019 02:00:00 6,4 4,7 5 3 S 1031,5 10
19.03.2019 01:00:00 8,6 5,3 4 2 - 1031,6 10
19.03.2019 00:00:00 9,2 5,2 8 4 NNE 1032,0 30
18.03.2019 23:00:00 9,2 5,4 8 4 NE 1032,1 10
18.03.2019 22:00:00 9,5 5,1 9 5 NNE 1031,9 10
18.03.2019 21:00:00 9,2 4,6 9 5 NNE 1031,7 22
18.03.2019 20:00:00 10,0 4,8 15 8 NNE 1031,3 10
18.03.2019 19:00:00 11,2 4,5 13 7 N 1030,7 10
18.03.2019 18:00:00 11,8 4,9 15 8 NNE 1030,0 10
18.03.2019 17:00:00 11,9 5,2 21 11 N 1030,0 10

tt = temperature
td = dewpoint
ff = wind speed
dd = wind direction
ppp = reduced air pressure
vv = visibility

Next stations